Air Sicilia Virtual Airways - Route

Air Sicilia Virtual Airways - SIC095L

( ES ) LESB
Son Bonet Airport
MALLORCA ISLAND ( )
plane_to ( ES ) LEAL
Alicante International Airport
ALICANTE ( ALC )
Mediterraneo TOUR VFR - LEG: 15

AIRPORT NEAR NAVIGATION AIDS

Type Name Frequency

METAR / TAF
LESB 191600Z AUTO 23012KT CAVOK 29/16 Q1016

RUNWAY INFORMATION

Runway Runway length Runway width Runway elevation Runway displaced threshold Runway heading
06 3281 72 0 0 49.1
24 3281 72 0 0 229.1

AIRPORT FREQUENCIES

Type Name Frequency
APP PALMA APP 119.4 MHZ
OPS PALMA OPS 130.25 MHZ
TWR PALMA TWR 118.3 MHZ

AIRPORT NEAR NAVIGATION AIDS

Type Name Frequency
VOR-DME Alicante 113800 KHZ
VOR-DME Alicante 114650 KHZ

METAR / TAF
LEAL 191600Z 07013KT 050V110 CAVOK 28/21 Q1014 NOSIG
LEAL 191100Z 1912/2012 07013KT 9999 FEW020 TX32/1912Z TN25/2006Z BECMG 1922/1924 01006KT BECMG 2007/2009 07017KT PROB40 TEMPO 2010/2012 08019G29KT

RUNWAY INFORMATION

Runway Runway length Runway width Runway elevation Runway displaced threshold Runway heading
10 9842 148 142 0 99.7
28 9842 148 44 0 279.7

AIRPORT FREQUENCIES

Type Name Frequency
APP APP 118.8 MHZ
ATIS ATIS 113.8 MHZ
GND GND 121.7 MHZ
TWR TWR 118.15 MHZ

Flightplan

passando per SES BLEDES

Air Sicilia Virtual Airways Fleets

AVAILABLE AIRCRAFTS for route at this time in Son Bonet Airport
C172 - Cessna 172 Skyhawk
( US ) Cessna

Aircraft in fleet: 13

180 NM

Distance in nautical miles.

€ 100,00

Ticket price for this flight.

Nr. 15

Leg



12-11-2018
Aerosoft Airport Rio de Janeiro International V2.0 XP

L'Aeroporto Internazionale di Rio de Janeiro-Galeão (IATA: GIG, ICAO: SBGL), costruito nel 1952 nel quartiere di Ilha do Governador ed intitolato al musicista Antônio Carlos Jobim, è il principale aeroporto internazio ....


15-10-2018
Aerosoft A320 Family professional

La gamma di aeromobili A320 è una delle più comuni nei cieli. Questi aerei di linea a doppio-getto a corto e medio raggio si sono dimostrati convenienti, affidabili e prontamente disponibili, rendendoli le opzioni migl ....


10-10-2018
Motore critico ( Critical Engine )

Il motore critico di un velivolo ad ala fissa multi-motore è il motore che, in caso di guasto, influirebbe negativamente sulle prestazioni o sulla capacità di manovra di un aereo. Sui velivoli ad elica, vi è un ....


04-10-2018
Aerosoft Dortmund XP

Scopri il centro della regione della Ruhr su XPlane 11 - lo scenario Dortmund XP è una ricostruzione completa della città di Dortmund per il simulatore di volo targato Laminar. Oltre all'intera area urbana di Dortmu ....


07-08-2018
Aerosoft Professional Flight Planner PFPX

PFPX - Professional Flight Planner X - è un nuovo ed innovativo strumento di pianificazione del volo sviluppato da piloti e dispatcher del mondo reale. È un'aggiunta preziosa e realistica alla tua esperienza di simulaz ....